Weather History for Ely, MN

Change the Weather History Date:

Saturday, August 24, 2013

  Actual Average Record
Temperature  
Mean Temperature 70 °F -  
Max Temperature 84 °F 71 °F 89 °F (2003)
Min Temperature 55 °F 50 °F 44 °F (2001)
Cooling Degree Days 4    
Growing Degree Days 20 (Base 50)    
Moisture  
Dew Point 62 °F    
Average Humidity 70    
Maximum Humidity 88    
Minimum Humidity 51    
Precipitation  
Precipitation 0.00 in - - ()
Sea Level Pressure  
Sea Level Pressure 29.99 in    
Wind  
Wind Speed 6 mph (South)    
Max Wind Speed 20 mph    
Max Gust Speed 25 mph    
Visibility 10 miles    
Events      
Averages and records for this station are not official NWS values.
T = Trace of Precipitation, MM = Missing Value Source: NWS Daily Summary

Daily Weather History Graph

Daily Weather History Graph

Search for Another Location

Airport:

Trip Planner

Search our weather history database for the weather conditions in past years. The results will help you decide how hot, cold, wet, or windy it might be!

Date:

Astronomy

Aug. 24, 2013 Rise Set
Actual Time 6:15 AM CDT 8:03 PM CDT
Civil Twilight 5:42 AM CDT 8:35 PM CDT
Nautical Twilight 5:01 AM CDT 9:16 PM CDT
Astronomical Twilight 4:17 AM CDT 10:00 PM CDT
Moon 9:33 PM CDT (8/24) 10:37 AM CDT (8/24)
Length of Visible Light 14h 53m
Length of Day
13h 47m
Waning Gibbous, 84% of the Moon is Illuminated
Aug 24
Waning Gibbous
Aug 28
Last Quarter
Sep 5
New
Sep 12
First Quarter
Sep 19
Full

Hourly Weather History & Observations

Time (CDT) Temp. Heat Index Dew Point Humidity Pressure Visibility Wind Dir Wind Speed Gust Speed Precip Events Conditions
12:12 AM 55.4 °F - 50.0 °F 82% 30.07 in 10.0 mi Calm Calm - N/A   Clear
12:33 AM 55.4 °F - 50.0 °F 82% 30.08 in 10.0 mi Calm Calm - N/A   Clear
12:53 AM 57.2 °F - 48.2 °F 72% 30.07 in 10.0 mi Calm Calm - N/A   Clear
1:13 AM 55.4 °F - 48.2 °F 77% 30.08 in 10.0 mi Calm Calm - N/A   Clear
1:32 AM 55.4 °F - 50.0 °F 82% 30.08 in 10.0 mi Calm Calm - N/A   Clear
1:53 AM 55.4 °F - 50.0 °F 82% 30.08 in 10.0 mi Calm Calm - N/A   Clear
2:12 AM 55.4 °F - 50.0 °F 82% 30.08 in 10.0 mi Calm Calm - N/A   Clear
2:33 AM 55.4 °F - 51.8 °F 88% 30.08 in 10.0 mi Calm Calm - N/A   Clear
2:53 AM 59.0 °F - 53.6 °F 82% 30.08 in 10.0 mi Calm Calm - N/A   Clear
3:12 AM 60.8 °F - 53.6 °F 77% 30.08 in 10.0 mi Calm Calm - N/A   Clear
3:33 AM 60.8 °F - 53.6 °F 77% 30.08 in 10.0 mi SSE 3.5 mph - N/A   Clear
3:53 AM 59.0 °F - 53.6 °F 82% 30.08 in 10.0 mi SSE 3.5 mph - N/A   Clear
4:12 AM 60.8 °F - 53.6 °F 77% 30.08 in 10.0 mi SSE 4.6 mph - N/A   Scattered Clouds
4:33 AM 62.6 °F - 55.4 °F 77% 30.08 in 10.0 mi SSE 4.6 mph - N/A   Scattered Clouds
4:53 AM 62.6 °F - 57.2 °F 82% 30.08 in 10.0 mi SSE 5.8 mph - N/A   Scattered Clouds
5:12 AM 62.6 °F - 57.2 °F 82% 30.08 in 10.0 mi South 5.8 mph - N/A   Scattered Clouds
5:33 AM 62.6 °F - 57.2 °F 82% 30.07 in 10.0 mi SSE 4.6 mph - N/A   Scattered Clouds
5:53 AM 64.4 °F - 59.0 °F 83% 30.07 in 10.0 mi SSE 4.6 mph - N/A   Scattered Clouds
6:12 AM 64.4 °F - 59.0 °F 83% 30.07 in 10.0 mi SSE 4.6 mph - N/A   Scattered Clouds
6:33 AM 64.4 °F - 60.8 °F 88% 30.07 in 10.0 mi SSE 5.8 mph - N/A   Clear
6:53 AM 64.4 °F - 60.8 °F 88% 30.07 in 10.0 mi South 5.8 mph - N/A   Scattered Clouds
7:12 AM 66.2 °F - 60.8 °F 83% 30.07 in 10.0 mi South 6.9 mph - N/A   Scattered Clouds
7:33 AM 66.2 °F - 60.8 °F 83% 30.06 in 10.0 mi South 8.1 mph - N/A   Scattered Clouds
7:53 AM 66.2 °F - 60.8 °F 83% 30.06 in 10.0 mi South 6.9 mph - N/A   Scattered Clouds
8:12 AM 68.0 °F - 62.6 °F 83% 30.05 in 10.0 mi South 9.2 mph - N/A   Scattered Clouds
8:33 AM 69.8 °F - 62.6 °F 78% 30.05 in 10.0 mi South 11.5 mph 17.3 mph N/A   Scattered Clouds
8:53 AM 69.8 °F - 62.6 °F 78% 30.06 in 10.0 mi South 11.5 mph - N/A   Scattered Clouds
9:12 AM 69.8 °F - 62.6 °F 78% 30.05 in 10.0 mi SSW 5.8 mph - N/A   Mostly Cloudy
9:33 AM 71.6 °F - 62.6 °F 73% 30.04 in 10.0 mi South 10.4 mph 16.1 mph N/A   Scattered Clouds
9:53 AM 73.4 °F - 64.4 °F 73% 30.03 in 10.0 mi South 12.7 mph 18.4 mph N/A   Clear
10:12 AM 73.4 °F - 64.4 °F 73% 30.02 in 10.0 mi South 10.4 mph 18.4 mph N/A   Clear
10:33 AM 75.2 °F - 64.4 °F 69% 30.02 in 10.0 mi South 11.5 mph 17.3 mph N/A   Clear
10:53 AM 77.0 °F - 64.4 °F 65% 30.01 in 10.0 mi SSE 10.4 mph 17.3 mph N/A   Clear
11:12 AM 77.0 °F - 64.4 °F 65% 30.01 in 10.0 mi South 9.2 mph - N/A   Clear
11:33 AM 78.8 °F - 66.2 °F 65% 30.01 in 10.0 mi SSE 12.7 mph 17.3 mph N/A   Clear
11:53 AM 80.6 °F 82.7 °F 66.2 °F 61% 30.01 in 10.0 mi SSE 9.2 mph 18.4 mph N/A   Clear
12:12 PM 80.6 °F 82.7 °F 66.2 °F 61% 30.00 in 10.0 mi South 11.5 mph 16.1 mph N/A   Clear
12:33 PM 80.6 °F 82.7 °F 66.2 °F 61% 29.99 in 10.0 mi SSE 13.8 mph - N/A   Clear
12:53 PM 80.6 °F 82.7 °F 66.2 °F 61% 29.99 in 10.0 mi SSW 11.5 mph - N/A   Clear
1:13 PM 82.4 °F 83.9 °F 64.4 °F 54% 29.98 in 10.0 mi South 11.5 mph 21.9 mph N/A   Clear
1:32 PM 82.4 °F 83.9 °F 64.4 °F 54% 29.97 in 10.0 mi South 13.8 mph 20.7 mph N/A   Clear
1:53 PM 82.4 °F 83.9 °F 64.4 °F 54% 29.97 in 10.0 mi South 12.7 mph 25.3 mph N/A   Clear
2:13 PM 84.2 °F 85.6 °F 64.4 °F 51% 29.96 in 10.0 mi South 19.6 mph 23.0 mph N/A   Clear
2:32 PM 84.2 °F 85.6 °F 64.4 °F 51% 29.95 in 10.0 mi South 15.0 mph 23.0 mph N/A   Clear
2:53 PM 82.4 °F 83.9 °F 64.4 °F 54% 29.95 in 10.0 mi South 16.1 mph 23.0 mph N/A   Clear
3:12 PM 82.4 °F 83.9 °F 64.4 °F 54% 29.95 in 10.0 mi South 15.0 mph 19.6 mph N/A   Scattered Clouds
3:33 PM 84.2 °F 85.6 °F 64.4 °F 51% 29.94 in 10.0 mi South 13.8 mph 19.6 mph N/A   Scattered Clouds
3:53 PM 82.4 °F 84.6 °F 66.2 °F 58% 29.93 in 10.0 mi South 16.1 mph 19.6 mph N/A   Clear
4:12 PM 84.2 °F 86.6 °F 66.2 °F 55% 29.93 in 10.0 mi South 11.5 mph 21.9 mph N/A   Scattered Clouds
4:33 PM 82.4 °F 84.6 °F 66.2 °F 58% 29.93 in 10.0 mi South 11.5 mph 21.9 mph N/A   Clear
4:53 PM 80.6 °F 82.7 °F 66.2 °F 61% 29.92 in 10.0 mi South 11.5 mph 20.7 mph N/A   Clear
5:12 PM 82.4 °F 83.9 °F 64.4 °F 54% 29.91 in 10.0 mi South 17.3 mph 23.0 mph N/A   Clear
5:33 PM 82.4 °F 83.9 °F 64.4 °F 54% 29.90 in 10.0 mi South 16.1 mph 23.0 mph N/A   Clear
5:53 PM 82.4 °F 83.9 °F 64.4 °F 54% 29.90 in 10.0 mi South 13.8 mph 19.6 mph N/A   Clear
6:12 PM 82.4 °F 83.9 °F 64.4 °F 54% 29.89 in 10.0 mi South 15.0 mph 19.6 mph N/A   Clear
6:32 PM 80.6 °F 82.7 °F 66.2 °F 61% 29.89 in 10.0 mi South 13.8 mph 18.4 mph N/A   Clear
6:53 PM 80.6 °F 82.3 °F 64.4 °F 58% 29.90 in 10.0 mi South 11.5 mph - N/A   Clear
7:12 PM 78.8 °F - 66.2 °F 65% 29.89 in 10.0 mi South 10.4 mph 18.4 mph N/A   Clear
7:33 PM 78.8 °F - 66.2 °F 65% 29.88 in 10.0 mi South 10.4 mph - N/A   Clear
7:53 PM 78.8 °F - 66.2 °F 65% 29.87 in 10.0 mi South 10.4 mph 17.3 mph N/A   Clear
8:12 PM 77.0 °F - 66.2 °F 69% 29.86 in 10.0 mi South 11.5 mph 16.1 mph N/A   Clear
8:33 PM 75.2 °F - 66.2 °F 73% 29.85 in 10.0 mi South 13.8 mph 19.6 mph N/A   Clear
8:53 PM 75.2 °F - 66.2 °F 73% 29.85 in 10.0 mi South 12.7 mph 20.7 mph N/A   Clear
9:12 PM 75.2 °F - 66.2 °F 73% 29.86 in 10.0 mi South 13.8 mph 21.9 mph N/A   Clear
9:33 PM 75.2 °F - 66.2 °F 73% 29.87 in 10.0 mi South 12.7 mph - N/A   Clear
9:53 PM 75.2 °F - 66.2 °F 73% 29.87 in 10.0 mi South 9.2 mph 17.3 mph N/A   Clear
10:12 PM 75.2 °F - 66.2 °F 73% 29.87 in 10.0 mi South 10.4 mph - N/A   Clear
10:33 PM 75.2 °F - 66.2 °F 73% 29.88 in 10.0 mi SSW 8.1 mph - N/A   Scattered Clouds
10:53 PM 75.2 °F - 66.2 °F 73% 29.89 in 10.0 mi SSW 10.4 mph - N/A   Scattered Clouds
11:12 PM 75.2 °F - 68.0 °F 78% 29.89 in 10.0 mi South 8.1 mph - N/A   Scattered Clouds
11:33 PM 75.2 °F - 68.0 °F 78% 29.89 in 10.0 mi SSW 6.9 mph - N/A   Mostly Cloudy
11:53 PM 75.2 °F - 68.0 °F 78% 29.88 in 10.0 mi South 8.1 mph - N/A   Overcast